Location: Huppendorf
(49.9333°N, 11.1500°E)
Time: 15:37:08
(UTC+00:00)

H-2A R/B - Pass Details

Date: 27 February 2020
Orbit: 733 x 837 km, 98.2° (Epoch: 28 March)

Event Time Altitude Azimuth Distance (km) Brightness Sun altitude
Rises 18:23:32 0° 155° (SSE) 3,348 5.0 -15.3°
Reaches altitude 10° 18:25:52 10° 153° (SSE) 2,429 4.3 -15.6°
Maximum altitude 18:31:14 68° 71° (ENE) 901 2.1 -16.5°
Drops below altitude 10° 18:36:40 10° 350° (N) 2,464 4.8 -17.4°
Sets 18:39:03 0° 348° (NNW) 3,400 5.6 -17.7°
